map of CHR home
Great Circle Mapper logo
CHR - Airport
Location
City:  Châteauroux/Déols, Centre, France
Name:Marcel Dassault
ICAO:LFLX
IATA:CHR

Details
Type:Airport (Aerodrome, Airfield)
Use:Public/Civil
Latitude:46°51'37"N (46.860278)
Longitude:1°43'16"E (1.721111)
Elevation:529 ft (161 m)
Variation:0.35°E (WMM2015 magnetic declination)
0.13° annual change
Runways:1
Longest:11483 × 148 ft (3500 × 45 m), paved

Time
Time Zone:UTC+1 (DST+2)
Local Time:

Weather
METAR:LFLX 301800Z AUTO 31008KT CAVOK 25/14 Q1013 NOSIG
TAF:LFLX 301700Z 3018/3124 28010KT CAVOK
BECMG 3106/3109 BKN040
BECMG 3116/3118 CAVOK
BECMG 3119/3121 34005KT

Related Locations
Nearby:
Farthest:CHT: 12203 mi / 19638 km
Waitangi [Tuuta], Chatham Islands, NZ

Find:

   beyond  
but within

Other Information
Maps:
NOTAMs:
Links:
Sources:

  
flag of France
flag of Centre
  

Sectional Chart

Flight Planning
at skyvector.com

Satellite Image

Google Maps Satellite view

 

Copyright © 2004-2016 Karl L. Swartz. All rights reserved.
The Great Circle Mapper name and logo are trademarks of the Great Circle Mapper.
All other trademarks mentioned herein belong to their respective owners.
Please see credits for attibutions and further copyright information.

  Follow gcmap on Facebook Follow gcmap on Twitter Follow gcmap on Google+ GCmap on LinkedIn

hCard Microformat

Geo Microformat